When you browse on this site, cookies collect data to enhance your experience and personalize the content and advertising you see.
Visit our Privacy Policy to learn more. By continuing to use the site, you agree to this use of cookies and data.
  • In Hungary
  • List of Countries
  • For 7 days
  • Water Temperature
  • Satellite Maps
  • Weather Map
  • News
  • Weather Widgets
  • user-avatar
    Login

    Hourly Weather Tarim

    Today, 19 November, Monday

    Time Temperature Precipitation Wind Pressure Humidity
    00:00 +26°C° 0 mm 2 mps 709 mmHg 38%
    01:00 +25°C° 0 mm 2 mps 709 mmHg 42%
    02:00 +25°C° 0 mm 2 mps 709 mmHg 45%
    03:00 +24°C° 0 mm 2 mps 709 mmHg 49%
    04:00 +24°C° 0 mm 2 mps 709 mmHg 51%
    05:00 +23°C° 0 mm 2 mps 709 mmHg 54%
    06:00 +23°C° 0 mm 2 mps 709 mmHg 56%
    07:00 +25°C° 0 mm 3 mps 710 mmHg 51%
    08:00 +27°C° 0 mm 4 mps 710 mmHg 45%
    09:00 +29°C° 0 mm 5 mps 711 mmHg 39%
    10:00 +30°C° 0 mm 5 mps 710 mmHg 35%
    11:00 +32°C° 0 mm 5 mps 710 mmHg 31%
    12:00 +33°C° 0 mm 5 mps 710 mmHg 27%
    13:00 +33°C° 0 mm 5 mps 709 mmHg 25%
    14:00 +34°C° 0 mm 5 mps 709 mmHg 24%
    15:00 +34°C° 0 mm 5 mps 708 mmHg 23%
    16:00 +33°C° 0 mm 4 mps 709 mmHg 24%
    17:00 +32°C° 0 mm 4 mps 709 mmHg 26%
    18:00 +30°C° 0 mm 3 mps 709 mmHg 28%
    19:00 +29°C° 0 mm 3 mps 709 mmHg 30%
    20:00 +29°C° 0 mm 3 mps 709 mmHg 32%
    21:00 +28°C° 0 mm 3 mps 709 mmHg 34%
    22:00 +27°C° 0 mm 3 mps 709 mmHg 35%
    23:00 +27°C° 0 mm 3 mps 709 mmHg 37%

    Tomorrow, 20 November, Tuesday

    Time Temperature Precipitation Wind Pressure Humidity
    00:00 +26°C° 0 mm 2 mps 709 mmHg 39%
    01:00 +25°C° 0 mm 2 mps 709 mmHg 40%
    02:00 +25°C° 0 mm 2 mps 709 mmHg 41%
    03:00 +24°C° 0 mm 2 mps 709 mmHg 43%
    04:00 +24°C° 0 mm 2 mps 709 mmHg 43%
    05:00 +23°C° 0 mm 2 mps 709 mmHg 44%
    06:00 +23°C° 0 mm 2 mps 709 mmHg 45%
    07:00 +25°C° 0 mm 3 mps 710 mmHg 40%
    08:00 +27°C° 0 mm 3 mps 710 mmHg 35%
    09:00 +29°C° 0 mm 4 mps 710 mmHg 30%
    10:00 +30°C° 0 mm 4 mps 710 mmHg 27%
    11:00 +32°C° 0 mm 4 mps 710 mmHg 24%
    12:00 +34°C° 0 mm 4 mps 710 mmHg 21%
    13:00 +34°C° 0 mm 4 mps 709 mmHg 20%
    14:00 +34°C° 0 mm 4 mps 709 mmHg 19%
    15:00 +35°C° 0 mm 4 mps 708 mmHg 18%
    16:00 +34°C° 0 mm 4 mps 709 mmHg 19%
    17:00 +33°C° 0 mm 3 mps 709 mmHg 20%
    18:00 +30°C° 0 mm 3 mps 709 mmHg 22%
    19:00 +30°C° 0 mm 3 mps 709 mmHg 24%
    20:00 +29°C° 0 mm 3 mps 709 mmHg 25%
    21:00 +28°C° 0 mm 3 mps 710 mmHg 27%
    22:00 +27°C° 0 mm 3 mps 710 mmHg 29%
    23:00 +27°C° 0 mm 2 mps 710 mmHg 31%

    Day after tomorrow, 21 November, Wednesday

    Time Temperature Precipitation Wind Pressure Humidity
    00:00 +26°C° 0 mm 2 mps 709 mmHg 33%
    01:00 +25°C° 0 mm 2 mps 709 mmHg 34%
    02:00 +25°C° 0 mm 2 mps 709 mmHg 36%
    03:00 +24°C° 0 mm 2 mps 709 mmHg 37%
    04:00 +24°C° 0 mm 2 mps 709 mmHg 38%
    05:00 +23°C° 0 mm 2 mps 709 mmHg 39%
    06:00 +23°C° 0 mm 2 mps 709 mmHg 40%
    07:00 +25°C° 0 mm 3 mps 709 mmHg 36%
    08:00 +27°C° 0 mm 4 mps 710 mmHg 32%
    09:00 +29°C° 0 mm 5 mps 711 mmHg 27%
    10:00 +32°C° 0 mm 5 mps 710 mmHg 24%
    11:00 +33°C° 0 mm 5 mps 710 mmHg 21%
    12:00 +34°C° 0 mm 5 mps 709 mmHg 18%
    13:00 +34°C° 0 mm 5 mps 709 mmHg 17%
    14:00 +35°C° 0 mm 5 mps 708 mmHg 16%
    15:00 +35°C° 0 mm 5 mps 708 mmHg 16%
    16:00 +34°C° 0 mm 5 mps 708 mmHg 17%
    17:00 +32°C° 0 mm 4 mps 708 mmHg 19%
    18:00 +30°C° 0 mm 4 mps 709 mmHg 20%
    19:00 +29°C° 0 mm 4 mps 709 mmHg 22%
    20:00 +29°C° 0 mm 4 mps 709 mmHg 25%
    21:00 +28°C° 0 mm 4 mps 710 mmHg 27%
    22:00 +27°C° 0 mm 3 mps 710 mmHg 29%
    23:00 +26°C° 0 mm 3 mps 710 mmHg 32%

    22 November, Thursday

    Time Temperature Precipitation Wind Pressure Humidity
    00:00 +26°C° 0 mm 3 mps 709 mmHg 34%
    01:00 +25°C° 0 mm 3 mps 709 mmHg 36%
    02:00 +24°C° 0 mm 2 mps 709 mmHg 39%
    03:00 +24°C° 0 mm 2 mps 709 mmHg 41%
    04:00 +23°C° 0 mm 2 mps 709 mmHg 43%
    05:00 +23°C° 0 mm 2 mps 709 mmHg 45%
    06:00 +21°C° 0 mm 2 mps 709 mmHg 47%
    07:00 +25°C° 0 mm 3 mps 710 mmHg 43%
    08:00 +27°C° 0 mm 5 mps 710 mmHg 38%
    09:00 +29°C° 0 mm 6 mps 711 mmHg 33%
    10:00 +30°C° 0 mm 6 mps 710 mmHg 29%
    11:00 +32°C° 0 mm 6 mps 710 mmHg 26%
    12:00 +33°C° 0 mm 5 mps 709 mmHg 22%
    13:00 +33°C° 0 mm 5 mps 709 mmHg 21%
    14:00 +34°C° 0 mm 5 mps 708 mmHg 20%
    15:00 +34°C° 0 mm 5 mps 708 mmHg 19%
    16:00 +33°C° 0 mm 4 mps 708 mmHg 21%
    17:00 +32°C° 0 mm 4 mps 708 mmHg 22%
    18:00 +29°C° 0 mm 3 mps 708 mmHg 24%
    19:00 +29°C° 0 mm 3 mps 709 mmHg 26%
    20:00 +28°C° 0 mm 3 mps 709 mmHg 28%
    21:00 +27°C° 0 mm 3 mps 710 mmHg 30%
    22:00 +26°C° 0 mm 3 mps 709 mmHg 34%
    23:00 +25°C° 0 mm 2 mps 709 mmHg 38%

    23 November, Friday

    Time Temperature Precipitation Wind Pressure Humidity
    00:00 +25°C° 0 mm 2 mps 709 mmHg 41%
    01:00 +24°C° 0 mm 2 mps 709 mmHg 44%
    02:00 +24°C° 0 mm 2 mps 708 mmHg 47%
    03:00 +23°C° 0 mm 2 mps 708 mmHg 49%
    04:00 +23°C° 0 mm 2 mps 708 mmHg 51%
    05:00 +21°C° 0 mm 2 mps 709 mmHg 53%
    06:00 +21°C° 0 mm 2 mps 709 mmHg 55%
    07:00 +24°C° 0 mm 3 mps 710 mmHg 50%
    08:00 +26°C° 0 mm 4 mps 710 mmHg 44%
    09:00 +28°C° 0 mm 5 mps 711 mmHg 38%
    10:00 +29°C° 0 mm 5 mps 710 mmHg 33%
    11:00 +32°C° 0 mm 5 mps 710 mmHg 28%
    12:00 +33°C° 0 mm 5 mps 709 mmHg 23%
    13:00 +33°C° 0 mm 5 mps 709 mmHg 22%
    14:00 +34°C° 0 mm 4 mps 708 mmHg 21%
    15:00 +34°C° 0 mm 4 mps 708 mmHg 20%
    16:00 +33°C° 0 mm 4 mps 708 mmHg 24%
    17:00 +32°C° 0 mm 4 mps 708 mmHg 28%
    18:00 +29°C° 0 mm 4 mps 708 mmHg 31%
    19:00 +28°C° 0 mm 4 mps 709 mmHg 36%
    20:00 +28°C° 0 mm 3 mps 709 mmHg 41%
    21:00 +27°C° 0 mm 3 mps 710 mmHg 45%
    22:00 +26°C° 0 mm 3 mps 709 mmHg 49%
    23:00 +25°C° 0 mm 3 mps 709 mmHg 52%

    24 November, Saturday

    Time Temperature Precipitation Wind Pressure Humidity
    00:00 +25°C° 0 mm 2 mps 709 mmHg 56%
    01:00 +24°C° 0 mm 2 mps 708 mmHg 59%
    02:00 +24°C° 0 mm 2 mps 708 mmHg 62%
    03:00 +23°C° 0 mm 2 mps 708 mmHg 65%
    04:00 +23°C° 0 mm 2 mps 708 mmHg 68%
    05:00 +23°C° 0 mm 2 mps 709 mmHg 71%
    06:00 +23°C° 0 mm 2 mps 709 mmHg 73%
    07:00 +24°C° 0 mm 2 mps 709 mmHg 67%
    08:00 +26°C° 0 mm 3 mps 710 mmHg 61%
    09:00 +28°C° 0 mm 4 mps 711 mmHg 54%
    10:00 +29°C° 0 mm 4 mps 710 mmHg 49%
    11:00 +32°C° 0 mm 4 mps 709 mmHg 44%
    12:00 +34°C° 0 mm 5 mps 709 mmHg 38%
    13:00 +34°C° 0 mm 5 mps 708 mmHg 37%
    14:00 +34°C° 0 mm 5 mps 708 mmHg 36%
    15:00 +35°C° 0 mm 5 mps 708 mmHg 35%
    16:00 +34°C° 0 mm 5 mps 708 mmHg 38%
    17:00 +33°C° 0 mm 6 mps 708 mmHg 42%
    18:00 +32°C° 0 mm 6 mps 709 mmHg 46%
    19:00 +30°C° 0 mm 5 mps 709 mmHg 50%
    20:00 +29°C° 0 mm 4 mps 709 mmHg 54%
    21:00 +28°C° 0 mm 4 mps 710 mmHg 57%
    22:00 +27°C° 0 mm 4 mps 709 mmHg 60%
    23:00 +26°C° 0 mm 3 mps 709 mmHg 62%
    Show more